Flag for U.S.A. Weather past 2 weeks in New Haven, Connecticut, U.S.A.

Now
74 °F

Partly sunny.


Feels Like: 77 °F
Forecast: 62 / 82 °F
Wind: 9 mph from Southeast

Location: Tweed-New Haven Airport

Current Time: Jun 30, 2015 at 6:28:52 PM

Latest Report: Jun 30, 2015 at 5:53 PM


Visibility: 10 mi

Pressure: 29.92 "Hg

Humidity: 62%

Dew point: 60 °F

Location of New HavenLocation

Historic Weather in New Haven — Graph

°F

New Haven temperature yesterday

Maximum temperature yesterday: 73 °F (at 5:53 PM)
Minimum temperature yesterday: 60 °F (at 12:53 AM)
Average temperature yesterday: 67 °F

Past Weeks' High & Low Weather Summary

 TemperatureHumidityPressure
High85 °F (Jun 21, 6:00 PM)97% (Jun 15, 5:00 PM)30.16 "Hg (Jun 15, 5:00 PM)
Low57 °F (Jun 25, 4:53 AM)40% (Jun 17, 1:53 PM)29.65 "Hg (Jun 28, 11:53 AM)
Average69 °F75%29.94 "Hg
* Reported Jun 15 5:00 PM — Jun 30 4:53 PM, New Haven, Weather by CustomWeather, © 2015

Note: Actual official high and low records may vary slightly from our data, if they occured in-between our weather recording intervals... More about our weather records

Advertising

New Haven weather history for previous 24 hours

 ConditionsComfort  
Time TempWeatherWind HumidityBarometerVisibility
4:53 PM
Tue, Jun 30
76 °FBroken clouds.9 mph60%29.94 "Hg10 mi
3:53 PM78 °FScattered clouds.10 mph58%29.94 "Hg10 mi
2:53 PM79 °FScattered clouds.10 mph54%29.95 "Hg10 mi
1:53 PM79 °FScattered clouds.8 mph54%29.96 "Hg10 mi
12:53 PM79 °FScattered clouds.8 mph58%29.98 "Hg10 mi
11:53 AM77 °FScattered clouds.7 mph58%29.98 "Hg10 mi
10:53 AM75 °FScattered clouds.5 mph64%29.99 "Hg10 mi
9:53 AM75 °FScattered clouds.6 mph66%29.98 "Hg10 mi
8:53 AM70 °FPassing clouds.3 mph79%29.99 "Hg10 mi
7:53 AM69 °FScattered clouds.No wind84%30.00 "Hg10 mi
6:53 AM65 °FScattered clouds.No wind94%29.98 "Hg10 mi
5:53 AM60 °FPassing clouds.5 mph96%29.96 "Hg9 mi
4:53 AM60 °FClear.No wind93%29.95 "Hg10 mi
3:53 AM62 °FPassing clouds.No wind90%29.96 "Hg10 mi
2:53 AM61 °FPassing clouds.No wind93%29.96 "Hg10 mi
1:53 AM63 °FPassing clouds.No wind90%29.96 "Hg10 mi
12:53 AM64 °FPassing clouds.No wind87%29.95 "Hg10 mi
11:53 PM
Mon, Jun 29
67 °FPassing clouds.No wind81%29.95 "Hg10 mi
10:53 PM63 °FClear.No wind87%29.95 "Hg10 mi
9:53 PM65 °FClear.No wind85%29.94 "Hg10 mi
8:53 PM70 °FSunny.6 mph68%29.91 "Hg10 mi
7:53 PM70 °FScattered clouds.6 mph71%29.90 "Hg10 mi
6:53 PM72 °FScattered clouds.10 mph64%29.90 "Hg10 mi
Weather by CustomWeather, © 2015

See weather overviewHow to use our weather pages